sat.trackr.live / text

‹ back to catalog

TRANSPORTER-15 OBJECT C

NORAD 66668 · 2025-276C

PAYLOAD ACTIVE UNKNOWN

§ Identity

Operator
Country
TBD
Launch date
2025-11-28
Launch site
AFWTR
Launch vehicle
Mass (kg)
RCS (m²)

External: N2YO · Heavens-Above · Gunter

§ Orbital elements

Epoch: 2026-05-25T03:41:00.336768Z

Period
94.34 min
Inclination
97.4056°
Eccentricity
0.0008159
Mean motion
15.26335051 rev/d
Perigee alt
481.2 km
Apogee alt
492.4 km
Semi-major
6,864.9 km
B*
1.0723e-3
RAAN
219.5250°
Arg perigee
97.4978°
Mean anomaly
262.7187°
Rev number
2,697

§ Raw data

TRANSPORTER-15 OBJECT C1 66668U 25276C   26145.15347612  .00027881  00000+0  10723-2 0  99912 66668  97.4056 219.5250 0008159  97.4978 262.7187 15.26335051 26974

JSON: /api/v1/satellites/66668 · /tle

For live sub-satellite position, see the globe view (requires WebGL).

§ Visibility from observer

Set your observer location to see the next 7 days of passes ≥ 10°. The values pass through the URL so the page stays shareable.

No JS? Fill the form by hand. The geolocation button needs JavaScript.